Flag for United Kingdom Weather past 2 weeks in Huddersfield, England, United Kingdom

Now
59 °F

Clear.


Feels Like: 60 °F
Forecast: 52 / 66 °F
Wind: 3 mph from North

Location: Leeds And Bradford

Current Time: Jul 26, 2014 at 2:23:31 AM

Latest Report: Jul 26, 2014 at 1:50 AM


Visibility: 10 mi

Pressure: 30.09 "Hg

Humidity: 88%

Dew point: 55 °F

Location of HuddersfieldLocation

Historic Weather in Huddersfield — Graph

°F

Huddersfield temperature yesterday

Maximum temperature yesterday: 79 °F (at 2:50 PM)
Minimum temperature yesterday: 55 °F (at 4:50 AM)
Average temperature yesterday: 66 °F

Past Weeks' High & Low Weather Summary

 TemperatureHumidityPressure
High79 °F (Jul 25, 2:50 PM)100% (Jul 12, 11:20 PM)30.30 "Hg (Jul 12, 11:20 PM)
Low50 °F (Jul 14, 3:50 AM)51% (Jul 25, 2:50 PM)29.71 "Hg (Jul 13, 4:20 AM)
Average63 °F82%30.01 "Hg
* Reported Jul 11 12:20 AM — Jul 26 12:50 AM, Huddersfield, Weather by CustomWeather, © 2014

Note: Actual official high and low records may vary slightly from our data, if they occured in-between our weather recording intervals... More about our weather records

Advertising

Huddersfield weather history for previous 24 hours

 ConditionsComfort  
Time TempWeatherWind HumidityBarometerVisibility
12:50 AM
Jul 26
61 °FClear.3 mph88%30.09 "Hg10 mi
12:20 AM61 °FClear.1 mph83%30.09 "Hg10 mi
11:50 PM
Jul 25
63 °FPassing clouds.5 mph77%30.09 "HgN/A
11:20 PM63 °FPassing clouds.6 mph77%30.09 "HgN/A
10:50 PM63 °FClear.3 mph77%30.09 "Hg10 mi
10:20 PM64 °FClear.5 mph78%30.09 "Hg10 mi
9:50 PM64 °FSunny.7 mph78%30.09 "Hg10 mi
9:20 PM66 °FPassing clouds.5 mph73%30.09 "HgN/A
8:50 PM68 °FSunny.6 mph73%30.09 "Hg10 mi
8:20 PM72 °FPassing clouds.6 mph65%30.09 "HgN/A
7:50 PM73 °FSunny.10 mph65%30.07 "Hg10 mi
7:20 PM73 °FPassing clouds.9 mph69%30.07 "HgN/A
6:50 PM75 °FPassing clouds.9 mph61%30.07 "HgN/A
6:20 PM75 °FPassing clouds.9 mph61%30.07 "HgN/A
5:50 PM75 °FPassing clouds.9 mph61%30.07 "HgN/A
5:20 PM77 °FPassing clouds.10 mph61%30.09 "HgN/A
4:50 PM75 °FSleet. Passing clouds.10 mph61%30.09 "HgN/A
4:20 PM75 °FScattered clouds.8 mph65%30.09 "HgN/A
3:50 PM75 °FScattered clouds.8 mph65%30.09 "HgN/A
3:20 PM79 °FPassing clouds.7 mph54%30.09 "HgN/A
2:50 PM79 °FPassing clouds.10 mph51%30.09 "HgN/A
2:20 PM77 °FPassing clouds.8 mph54%30.09 "HgN/A
1:20 PM75 °FPassing clouds.9 mph57%30.12 "HgN/A
12:50 PM73 °FPassing clouds.8 mph61%30.12 "HgN/A
12:20 PM73 °FPassing clouds.7 mph61%30.12 "HgN/A
11:50 AM72 °FPassing clouds.8 mph65%30.12 "HgN/A
11:20 AM70 °FPassing clouds.7 mph69%30.12 "HgN/A
10:50 AM70 °FPassing clouds.8 mph69%30.12 "HgN/A
10:20 AM68 °FPassing clouds.7 mph69%30.12 "HgN/A
9:50 AM66 °FPassing clouds.6 mph78%30.15 "HgN/A
9:20 AM64 °FPassing clouds.6 mph78%30.15 "HgN/A
8:50 AM63 °FPassing clouds.5 mph83%30.15 "HgN/A
8:20 AM61 °FPassing clouds.5 mph88%30.15 "Hg5 mi
7:50 AM59 °FFog.5 mph94%30.15 "Hg2 mi
7:20 AM57 °FFog.6 mph100%30.15 "Hg1 mi
6:50 AM55 °FFog.6 mph100%30.12 "Hg1 mi
6:20 AM55 °FFog.6 mph100%30.12 "Hg1 mi
5:50 AM55 °FFog.6 mph100%30.12 "Hg1 mi
5:20 AM55 °FFog.6 mph100%30.12 "Hg1 mi
4:50 AM55 °FFog.7 mph100%30.12 "Hg1 mi
4:20 AM57 °FFog.6 mph100%30.15 "Hg1 mi
3:50 AM57 °FFog.5 mph100%30.12 "Hg1 mi
3:20 AM57 °FFog.7 mph100%30.12 "Hg1 mi
2:50 AM57 °FFog.7 mph100%30.15 "Hg0 mi
2:20 AM57 °FFog.6 mph100%30.15 "Hg0 mi
Weather by CustomWeather, © 2014

See weather overviewHow to use our weather pages